WetterOnline ( https://www.wetteronline.de )

Wetter aktuell Bad Hersfeld

Aktuelles Wetter: Bad Hersfeld (273m)

6-stündlich | Neueste Meldungen
Ortszeit Temperatur Wetter
Fr, 17.09. 8:00 9.5° C bedeckt
Fr, 17.09. 2:00 10.6° C leicht bewölkt
Do, 16.09. 20:00 15.3° C bedeckt
Do, 16.09. 14:00 17.5° C bedeckt
Do, 16.09. 8:00 14.8° C bedeckt
Do, 16.09. 2:00 15.8° C bedeckt
Mi, 15.09. 20:00 18.5° C Regen
Mi, 15.09. 14:00 19.7° C Sprühregen
Ortszeit Temperatur Wetter
Fr, 17.09. 8:00 9.5° C bedeckt
Fr, 17.09. 7:50 9.5° C bedeckt
Fr, 17.09. 7:40 9.1° C bedeckt
Fr, 17.09. 7:30 8.8° C bedeckt
Fr, 17.09. 7:20 8.8° C bedeckt
Fr, 17.09. 7:10 8.6° C bedeckt
Fr, 17.09. 7:00 8.2° C Nebel
Fr, 17.09. 6:30 8.6° C Nebel
Fr, 17.09. 6:00 8.7° C Nebel
Fr, 17.09. 5:30 8.8° C Nebel
Fr, 17.09. 5:00 9.0° C Nebel
Ortszeit Relative Feuchte Sichtweite
Fr, 17.09. 8:00 99% 6 km
Fr, 17.09. 2:00 99% 12 km
Do, 16.09. 20:00 84% 40 km
Do, 16.09. 14:00 61% 65 km
Do, 16.09. 8:00 97% 5.0 km
Do, 16.09. 2:00 95% 16 km
Mi, 15.09. 20:00 96% 22 km
Mi, 15.09. 14:00 91% 30 km
Ortszeit Relative Feuchte Sichtweite
Fr, 17.09. 8:00 99% 6 km
Fr, 17.09. 7:50 99% -
Fr, 17.09. 7:40 99% -
Fr, 17.09. 7:30 100% 2.7 km
Fr, 17.09. 7:20 100% -
Fr, 17.09. 7:10 100% -
Fr, 17.09. 7:00 99% 0.2 km
Fr, 17.09. 6:30 99% 0.2 km
Fr, 17.09. 6:00 99% 0.6 km
Fr, 17.09. 5:30 100% 100 m
Fr, 17.09. 5:00 100% 100 m
Ortszeit Niederschlagsmenge Niederschlagsart
Fr, 17.09. 8:00 0.0 l/m2 in 12 Std. -
Fr, 17.09. 2:00 0.0 l/m2 in 6 Std. -
Do, 16.09. 20:00 0.1 l/m2 in 12 Std. Regen
Do, 16.09. 14:00 0.0 l/m2 in 6 Std. -
Do, 16.09. 8:00 2 l/m2 in 12 Std. Regen
Do, 16.09. 2:00 1 l/m2 in 6 Std. Regen
Mi, 15.09. 20:00 3 l/m2 in 12 Std. Regen
Mi, 15.09. 14:00 1 l/m2 in 6 Std. Regen
Ortszeit Niederschlagsmenge Niederschlagsart
Fr, 17.09. 8:00 0.0 l/m2 in 1 Std. -
Fr, 17.09. 7:50 keine Meldung -
Fr, 17.09. 7:40 keine Meldung -
Fr, 17.09. 7:30 0.0 l/m2 in 1 Std. -
Fr, 17.09. 7:20 keine Meldung -
Fr, 17.09. 7:10 keine Meldung -
Fr, 17.09. 7:00 0.0 l/m2 in 1 Std. -
Fr, 17.09. 6:30 0.0 l/m2 in 1 Std. -
Fr, 17.09. 6:00 0.0 l/m2 in 1 Std. -
Fr, 17.09. 5:30 0.0 l/m2 in 1 Std. -
Fr, 17.09. 5:00 0.0 l/m2 in 1 Std. -
Ortszeit Stärke Spitze Richtung
km/h Bft. km/h Grad Sektor
Fr, 17.09. 8:00 4 1 7 200° S
Fr, 17.09. 2:00 4 1 14 260° W
Do, 16.09. 20:00 4 1 25 190° S
Do, 16.09. 14:00 7 2 25 320° NW
Do, 16.09. 8:00 0 0 11 - -
Do, 16.09. 2:00 0 0 32 - -
Mi, 15.09. 20:00 9 2 26 190° S
Mi, 15.09. 14:00 11 2 25 190° S
Ortszeit Stärke Spitze Richtung
km/h Bft. km/h Grad Sektor
Fr, 17.09. 8:00 4 1 7 200° S
Fr, 17.09. 7:50 4 1 - 200° S
Fr, 17.09. 7:40 4 1 - 210° SW
Fr, 17.09. 7:30 2 1 4 60° NO
Fr, 17.09. 7:20 2 1 - 60° NO
Fr, 17.09. 7:10 0 0 - 310° NW
Fr, 17.09. 7:00 0 0 4 - -
Fr, 17.09. 6:30 2 1 6 20° N
Fr, 17.09. 6:00 0 0 7 - -
Fr, 17.09. 5:30 4 1 7 40° NO
Fr, 17.09. 5:00 4 1 7 40° NO
Ortszeit Untergrenze Bedeckung Gattung
total tief tief mittel hoch
Fr, 17.09. 8:00 <30 m 8/8 0/8 - - -
Fr, 17.09. 2:00 9000 m 4/8 0/8 - - -
Do, 16.09. 20:00 1500 m 8/8 8/8 - - -
Do, 16.09. 14:00 1020 m 8/8 8/8 - - -
Do, 16.09. 8:00 30 m 8/8 8/8 - - -
Do, 16.09. 2:00 690 m 8/8 8/8 - - -
Mi, 15.09. 20:00 930 m 8/8 8/8 - - -
Mi, 15.09. 14:00 330 m 7/8 7/8 - - -
Ortszeit Bedeckungsgrad in Achtel und Wolkenuntergrenze
Fr, 17.09. 8:00 3(<30m) 8(1440m)
Fr, 17.09. 7:50 3(<30m) 8(1440m)
Fr, 17.09. 7:40 5(<30m) 8(1410m)
Fr, 17.09. 7:30 5(<30m) 8(1410m)
Fr, 17.09. 7:20 5(<30m) 8(1410m)
Fr, 17.09. 7:10 5(<30m) 8(1410m)
Fr, 17.09. 7:00 8(<30m) 8(1440m)
Fr, 17.09. 6:30 8(<30m) 8(1290m)
Fr, 17.09. 6:00 7(<30m) 7(1230m)
Fr, 17.09. 5:30 8(<30m) 8(1080m)
Fr, 17.09. 5:00 8(<30m)
Ortszeit Luftdruck NN (hPa) Tendenz (hPa in 3 Std.)
Fr, 17.09. 8:00 1017 - 0,3
Fr, 17.09. 2:00 1018 + 0,2
Do, 16.09. 20:00 1016 + 0,3
Do, 16.09. 14:00 1016 + 0,2
Do, 16.09. 8:00 1015 + 0,6
Do, 16.09. 2:00 1013 + 1,1
Mi, 15.09. 20:00 1011 + 0,1
Mi, 15.09. 14:00 1012 - 0,6
Ortszeit Luftdruck NN (hPa) Tendenz (hPa in 3 Std.)
Fr, 17.09. 8:00 1017 - 0,3
Fr, 17.09. 7:50 1017 keine Meldung
Fr, 17.09. 7:40 1017 keine Meldung
Fr, 17.09. 7:30 1017 - 0,2
Fr, 17.09. 7:20 1017 keine Meldung
Fr, 17.09. 7:10 1017 keine Meldung
Fr, 17.09. 7:00 1018 - 0,3
Fr, 17.09. 6:30 1017 - 0,7
Fr, 17.09. 6:00 1017 - 0,7
Fr, 17.09. 5:30 1018 - 0,6
Fr, 17.09. 5:00 1018 - 0,5
Ortszeit Schneehöhe (cm)
Fr, 17.09. 8:00 -
Fr, 17.09. 2:00 -
Do, 16.09. 20:00 -
Do, 16.09. 14:00 -
Do, 16.09. 8:00 -
Do, 16.09. 2:00 -
Mi, 15.09. 20:00 -
Mi, 15.09. 14:00 -
Ortszeit Schneehöhe (cm)
Fr, 17.09. 8:00 -
Fr, 17.09. 7:50 -
Fr, 17.09. 7:40 -
Fr, 17.09. 7:30 -
Fr, 17.09. 7:20 -
Fr, 17.09. 7:10 -
Fr, 17.09. 7:00 -
Fr, 17.09. 6:30 -
Fr, 17.09. 6:00 -
Fr, 17.09. 5:30 -
Fr, 17.09. 5:00 -
Link zu dieser Seite / Seite empfehlen

Das Wetter in ...